Back to catalog

STARLINK-31083

AliveCommunicationsVLEO
NORAD 58670·PAYLOAD·🇺🇸 United States

Launched Dec 29, 2023 from Cape Canaveral Space Force Station

Loading…

Next Passes (next 24 hours)

TLE

FreshSource: CelesTrak SupGP

Epoch: Sep 14, 2026, 22:24 UTC

1 58670C 23211D   26257.93381944  .00009469  00000+0  34308-3 0  2573
2 58670  43.0027  96.1823 0001602 272.7081 356.3570 15.27564575    16

Track STARLINK-31083 in real time with AllMySat

Download on the App Store